• în Republica Moldova
  • Lista ţărilor
  • Pe 7 zile
  • Temperatura apei
  • Hartă satelitară
  • Meteo pe hartă
  • Widget-uri
  • user-avatar
    Intrare

    Meteo pe oră la Durres

    Astăzi, 18 Iulie, Miercuri

    Timp Temperatura Precipitaţii Vânt Presiune Umiditate
    00:00 +21°C° 0,3 mm 4 m/s 756 mmHg 89%
    01:00 +21°C° 0,3 mm 4 m/s 757 mmHg 89%
    02:00 +21°C° 0,2 mm 4 m/s 756 mmHg 88%
    03:00 +21°C° 0,2 mm 3 m/s 756 mmHg 88%
    04:00 +20°C° 0,2 mm 3 m/s 756 mmHg 87%
    05:00 +22°C° 0 mm 3 m/s 757 mmHg 81%
    06:00 +24°C° 0 mm 2 m/s 757 mmHg 74%
    07:00 +26°C° 0 mm 2 m/s 757 mmHg 68%
    08:00 +27°C° 0 mm 2 m/s 757 mmHg 61%
    09:00 +29°C° 0 mm 2 m/s 757 mmHg 54%
    10:00 +30°C° 0 mm 3 m/s 757 mmHg 48%
    11:00 +32°C° 0 mm 4 m/s 757 mmHg 46%
    12:00 +33°C° 0 mm 5 m/s 757 mmHg 44%
    13:00 +33°C° 0 mm 6 m/s 757 mmHg 43%
    14:00 +33°C° 0 mm 6 m/s 757 mmHg 45%
    15:00 +32°C° 0 mm 6 m/s 757 mmHg 47%
    16:00 +32°C° 0 mm 6 m/s 756 mmHg 49%
    17:00 +29°C° 0 mm 6 m/s 757 mmHg 57%
    18:00 +27°C° 0 mm 5 m/s 757 mmHg 65%
    19:00 +26°C° 0 mm 5 m/s 757 mmHg 72%
    20:00 +25°C° 0 mm 5 m/s 757 mmHg 74%
    21:00 +23°C° 0 mm 4 m/s 757 mmHg 76%
    22:00 +22°C° 0 mm 4 m/s 758 mmHg 77%
    23:00 +22°C° 0 mm 4 m/s 758 mmHg 76%

    Mâine, 19 Iulie, Joi

    Timp Temperatura Precipitaţii Vânt Presiune Umiditate
    00:00 +22°C° 0 mm 3 m/s 758 mmHg 75%
    01:00 +21°C° 0 mm 3 m/s 757 mmHg 74%
    02:00 +21°C° 0 mm 3 m/s 757 mmHg 73%
    03:00 +21°C° 0 mm 3 m/s 757 mmHg 72%
    04:00 +21°C° 0 mm 2 m/s 757 mmHg 71%
    05:00 +24°C° 0 mm 2 m/s 757 mmHg 66%
    06:00 +25°C° 0 mm 2 m/s 757 mmHg 62%
    07:00 +27°C° 0 mm 2 m/s 757 mmHg 57%
    08:00 +28°C° 0 mm 2 m/s 757 mmHg 53%
    09:00 +30°C° 0 mm 2 m/s 757 mmHg 49%
    10:00 +31°C° 0 mm 2 m/s 757 mmHg 46%
    11:00 +33°C° 0 mm 3 m/s 757 mmHg 44%
    12:00 +33°C° 0 mm 4 m/s 757 mmHg 43%
    13:00 +34°C° 0 mm 5 m/s 757 mmHg 41%
    14:00 +33°C° 0 mm 5 m/s 757 mmHg 43%
    15:00 +33°C° 0 mm 5 m/s 757 mmHg 45%
    16:00 +32°C° 0 mm 6 m/s 756 mmHg 47%
    17:00 +30°C° 0 mm 5 m/s 757 mmHg 54%
    18:00 +28°C° 0 mm 5 m/s 757 mmHg 61%
    19:00 +26°C° 0 mm 4 m/s 757 mmHg 68%
    20:00 +25°C° 0 mm 4 m/s 757 mmHg 70%
    21:00 +25°C° 0 mm 4 m/s 758 mmHg 71%
    22:00 +24°C° 0 mm 3 m/s 758 mmHg 73%
    23:00 +24°C° 0 mm 3 m/s 758 mmHg 72%

    Poimâine, 20 Iulie, Vineri

    Timp Temperatura Precipitaţii Vânt Presiune Umiditate
    00:00 +22°C° 0 mm 3 m/s 758 mmHg 71%
    01:00 +22°C° 0 mm 3 m/s 758 mmHg 71%
    02:00 +22°C° 0 mm 3 m/s 758 mmHg 70%
    03:00 +22°C° 0 mm 3 m/s 758 mmHg 70%
    04:00 +21°C° 0 mm 2 m/s 757 mmHg 70%
    05:00 +24°C° 0 mm 2 m/s 758 mmHg 66%
    06:00 +26°C° 0 mm 2 m/s 758 mmHg 62%
    07:00 +27°C° 0 mm 2 m/s 758 mmHg 58%
    08:00 +29°C° 0 mm 2 m/s 758 mmHg 54%
    09:00 +31°C° 0 mm 2 m/s 758 mmHg 49%
    10:00 +32°C° 0 mm 2 m/s 758 mmHg 45%
    11:00 +34°C° 0 mm 3 m/s 758 mmHg 44%
    12:00 +34°C° 0 mm 4 m/s 757 mmHg 44%
    13:00 +35°C° 0 mm 5 m/s 757 mmHg 43%
    14:00 +34°C° 0 mm 5 m/s 757 mmHg 45%
    15:00 +34°C° 0 mm 5 m/s 757 mmHg 47%
    16:00 +33°C° 0 mm 6 m/s 757 mmHg 49%
    17:00 +32°C° 0 mm 5 m/s 757 mmHg 57%
    18:00 +29°C° 0 mm 5 m/s 757 mmHg 64%
    19:00 +27°C° 0 mm 4 m/s 757 mmHg 72%
    20:00 +26°C° 0 mm 3 m/s 758 mmHg 74%
    21:00 +25°C° 0 mm 3 m/s 758 mmHg 75%
    22:00 +25°C° 0 mm 2 m/s 758 mmHg 77%
    23:00 +24°C° 0 mm 2 m/s 758 mmHg 76%

    21 Iulie, Sâmbătă

    Timp Temperatura Precipitaţii Vânt Presiune Umiditate
    00:00 +24°C° 0 mm 2 m/s 758 mmHg 75%
    01:00 +24°C° 0 mm 2 m/s 758 mmHg 74%
    02:00 +24°C° 0 mm 2 m/s 758 mmHg 73%
    03:00 +23°C° 0 mm 2 m/s 758 mmHg 72%
    04:00 +23°C° 0 mm 2 m/s 758 mmHg 72%
    05:00 +25°C° 0 mm 2 m/s 758 mmHg 67%
    06:00 +27°C° 0 mm 2 m/s 758 mmHg 61%
    07:00 +28°C° 0 mm 2 m/s 758 mmHg 56%
    08:00 +30°C° 0 mm 2 m/s 758 mmHg 51%
    09:00 +32°C° 0 mm 1 m/s 758 mmHg 45%
    10:00 +33°C° 0 mm 1 m/s 758 mmHg 39%
    11:00 +35°C° 0 mm 2 m/s 758 mmHg 38%
    12:00 +35°C° 0 mm 2 m/s 758 mmHg 36%
    13:00 +36°C° 0 mm 2 m/s 757 mmHg 34%
    14:00 +36°C° 0 mm 2 m/s 757 mmHg 35%
    15:00 +36°C° 0 mm 2 m/s 757 mmHg 36%
    16:00 +35°C° 0 mm 2 m/s 757 mmHg 36%
    17:00 +32°C° 0 mm 2 m/s 757 mmHg 42%
    18:00 +30°C° 0 mm 2 m/s 757 mmHg 49%
    19:00 +28°C° 0 mm 2 m/s 757 mmHg 55%
    20:00 +27°C° 0 mm 2 m/s 757 mmHg 55%
    21:00 +27°C° 0 mm 3 m/s 757 mmHg 55%
    22:00 +26°C° 0 mm 3 m/s 757 mmHg 55%
    23:00 +26°C° 0 mm 3 m/s 757 mmHg 54%

    22 Iulie, Duminică

    Timp Temperatura Precipitaţii Vânt Presiune Umiditate
    00:00 +26°C° 0 mm 4 m/s 757 mmHg 52%
    01:00 +26°C° 0 mm 4 m/s 757 mmHg 51%
    02:00 +26°C° 0 mm 4 m/s 756 mmHg 50%
    03:00 +26°C° 0 mm 4 m/s 756 mmHg 49%
    04:00 +25°C° 0 mm 4 m/s 756 mmHg 48%
    05:00 +27°C° 0 mm 4 m/s 755 mmHg 48%
    06:00 +29°C° 0 mm 4 m/s 755 mmHg 47%
    07:00 +32°C° 0 mm 4 m/s 755 mmHg 47%
    08:00 +33°C° 0,1 mm 5 m/s 755 mmHg 41%
    09:00 +35°C° 0,1 mm 5 m/s 754 mmHg 35%
    10:00 +38°C° 0,1 mm 6 m/s 754 mmHg 30%
    11:00 +38°C° 0 mm 7 m/s 753 mmHg 30%
    12:00 +39°C° 0 mm 7 m/s 753 mmHg 30%
    13:00 +39°C° 0 mm 7 m/s 753 mmHg 30%
    14:00 +39°C° 0 mm 8 m/s 752 mmHg 32%
    15:00 +38°C° 0 mm 9 m/s 752 mmHg 34%
    16:00 +38°C° 0 mm 9 m/s 751 mmHg 35%
    17:00 +35°C° 0 mm 9 m/s 751 mmHg 41%
    18:00 +33°C° 0 mm 8 m/s 751 mmHg 47%
    19:00 +31°C° 0 mm 8 m/s 751 mmHg 53%
    20:00 +29°C° 0,4 mm 7 m/s 752 mmHg 57%
    21:00 +27°C° 0,4 mm 6 m/s 752 mmHg 62%
    22:00 +26°C° 0,4 mm 6 m/s 752 mmHg 67%
    23:00 +26°C° 0,9 mm 5 m/s 752 mmHg 72%

    23 Iulie, Luni

    Timp Temperatura Precipitaţii Vânt Presiune Umiditate
    00:00 +25°C° 0,9 mm 5 m/s 752 mmHg 77%
    01:00 +23°C° 0,9 mm 4 m/s 752 mmHg 82%
    02:00 +23°C° 0,5 mm 4 m/s 752 mmHg 82%
    03:00 +23°C° 0,5 mm 4 m/s 752 mmHg 83%
    04:00 +22°C° 0,5 mm 5 m/s 752 mmHg 84%
    05:00 +23°C° 0,9 mm 4 m/s 752 mmHg 80%
    06:00 +25°C° 0,9 mm 4 m/s 752 mmHg 77%
    07:00 +27°C° 0,9 mm 4 m/s 752 mmHg 73%
    08:00 +27°C° 0,6 mm 4 m/s 752 mmHg 69%
    09:00 +28°C° 0,6 mm 4 m/s 752 mmHg 64%
    10:00 +29°C° 0,6 mm 3 m/s 752 mmHg 59%
    11:00 +30°C° 0,4 mm 3 m/s 752 mmHg 58%
    12:00 +30°C° 0,4 mm 3 m/s 752 mmHg 56%
    13:00 +30°C° 0,4 mm 3 m/s 752 mmHg 54%
    14:00 +30°C° 0,2 mm 3 m/s 752 mmHg 55%
    15:00 +30°C° 0,2 mm 4 m/s 752 mmHg 56%
    16:00 +30°C° 0,2 mm 4 m/s 752 mmHg 57%
    17:00 +29°C° 0,3 mm 3 m/s 752 mmHg 63%
    18:00 +27°C° 0,3 mm 3 m/s 752 mmHg 69%
    19:00 +26°C° 0,3 mm 3 m/s 752 mmHg 75%
    20:00 +26°C° 0,2 mm 3 m/s 753 mmHg 76%
    21:00 +25°C° 0,2 mm 3 m/s 753 mmHg 78%
    22:00 +24°C° 0,2 mm 2 m/s 753 mmHg 79%
    23:00 +24°C° 0,1 mm 2 m/s 753 mmHg 79%
    Arată mai mult